Location: Warren
(41.8440°N, 79.1450°W)
Time: 14:26:14
(UTC-04:00)

ISS - Visible Passes

Search period start: 25 April 2018 00:00
Search period end: 05 May 2018 00:00
Orbit: 403 x 406 km, 51.6° (Epoch: 26 April)

Date Brightness Start Highest point End Pass type
(mag) Time Alt. Az. Time Alt. Az. Time Alt. Az.
29 Apr -1.0 05:39:25 10° SSE 05:40:29 11° SE 05:41:33 10° ESE visible
01 May -2.1 05:29:15 10° SSW 05:32:01 26° SE 05:34:49 10° ENE visible
02 May -1.3 04:38:16 11° SSE 04:39:53 14° SE 04:41:43 10° E visible
03 May -3.6 05:20:44 12° SW 05:23:39 64° SE 05:26:54 10° ENE visible
04 May -2.6 04:30:28 27° S 04:31:23 32° SE 04:34:21 10° ENE visible
